Location: Malvern Link
(52.1333°N, 2.3000°W)
Time: 11:58:18
(UTC+00:00)

MOZHAYETS 4 - Pass Details

Date: 03 July 2022
Orbit: 660 x 679 km, 98.2° (Epoch: 11 August)

Event Time Altitude Azimuth Distance (km) Brightness Sun altitude
Rises 00:29:48 0° 108° (ESE) 3,026 11.0 -14.8°
Reaches altitude 10° 00:33:02 10° 83° (E) 2,112 10.4 -14.8°
Maximum altitude 00:35:21 14° 53° (NE) 1,860 10.6 -14.7°
Drops below altitude 10° 00:37:40 10° 22° (NNE) 2,113 11.5 -14.7°
Sets 00:40:54 0° 358° (N) 3,027 12.9 -14.7°
